This is the latest recevied weather packets stored in our database for station/object N4DWK. If no packets are shown the sender has not sent any weather packets the latest 10 day(s).
| Time | Temp. | Humidity | Pressure | Rain* | Wind** | Luminosity | Snow |
|---|---|---|---|---|---|---|---|
| 1777764007 | 14.44° C | 52% | 1011.8 hPa | 0 mm | - | 21 W/m² | - |
| 1777761607 | 15.56° C | 49% | 1011.4 hPa | 0 mm | - | 37 W/m² | - |
| 1777761306 | 15.56° C | 49% | 1011.4 hPa | 0 mm | - | 46 W/m² | - |
| 1777761006 | 15.56° C | 49% | 1011.4 hPa | 0 mm | - | 46 W/m² | - |
| 1777760706 | 15.56° C | 50% | 1011.5 hPa | 0 mm | - | 67 W/m² | - |
| 1777760406 | 15.56° C | 49% | 1011.4 hPa | 0 mm | - | 74 W/m² | - |
| 1777760105 | 15.56° C | 49% | 1011.4 hPa | 0 mm | - | 65 W/m² | - |
| 1777759506 | 16.11° C | 48% | 1011.6 hPa | 0 mm | - | 91 W/m² | - |
| 1777758906 | 15.56° C | 50% | 1011.8 hPa | 0 mm | - | 176 W/m² | - |
| 1777757706 | 15.56° C | 50% | 1011.8 hPa | 0 mm | - | 90 W/m² | - |
| 1777757106 | 15.56° C | 50% | 1011.8 hPa | 0 mm | - | 113 W/m² | - |
| 1777756806 | 15.56° C | 50% | 1011.7 hPa | 0 mm | - | 158 W/m² | - |
| 1777756506 | 15° C | 50% | 1011.7 hPa | 0 mm | - | 149 W/m² | - |
| 1777756206 | 15° C | 49% | 1011.6 hPa | 0 mm | - | 63 W/m² | - |
| 1777755906 | 15.56° C | 50% | 1011.6 hPa | 0 mm | - | 56 W/m² | - |
| 1777755306 | 15.56° C | 49% | 1011.6 hPa | 0 mm | - | 54 W/m² | - |
| 1777754106 | 15.56° C | 49% | 1011.7 hPa | 0 mm | - | 132 W/m² | - |
| 1777753806 | 15.56° C | 49% | 1011.7 hPa | 0 mm | - | 130 W/m² | - |
| 1777753506 | 15.56° C | 47% | 1011.7 hPa | 0 mm | - | 97 W/m² | - |
| 1777753206 | 16.11° C | 50% | 1011.7 hPa | 0 mm | - | 100 W/m² | - |
| 1777752306 | 16.11° C | 49% | 1011.8 hPa | 0 mm | - | 91 W/m² | - |
| 1777751706 | 15.56° C | 50% | 1011.7 hPa | 0 mm | - | 214 W/m² | - |
| 1777751405 | 15.56° C | 47% | 1011.8 hPa | 0 mm | - | 100 W/m² | - |
| 1777750506 | 16.67° C | 46% | 1012.1 hPa | 0 mm | - | 155 W/m² | - |
| 1777750206 | 16.67° C | 46% | 1012.1 hPa | 0 mm | - | 197 W/m² | - |
* Rain latest hour (hover to see other rain measurements)
** Current wind speed in m/s (hover to see current wind gust speed)